Tracking 25195 objects as of 19-Jan-2022
HD Live streaming from Space Station
objects crossing your sky now

DMSP 5D-2 F6 DEB

Track DMSP 5D-2 F6 DEB now!
10-day predictions


NORAD ID: 40919
Int'l Code: 1982-118M
Perigee: 753.3 km
Apogee: 776.7 km
Inclination: 98.5 °
Period: 100.0 minutes
Semi major axis: 7135 km
RCS: Unknown
Launch date: December 21, 1982
Source: United States (US)
Launch site: AIR FORCE WESTERN TEST RANGE (AFWTR)

Note: This is SATELLITE DEBRIS
aabbcc
Your satellite tracking list
Your tracking list is empty




NASA's NSSDC Master Catalog

Two Line Element Set (TLE):
1 40919U 82118M   22018.83324090  .00002898  00000-0  92873-3 0  9994
2 40919  98.4840 218.3456 0016335 166.7999 193.3620 14.40192861297202
Source of the keplerian elements: AFSPC